Simultaneous Nadir Overpasses (SNOs) Predictions

Prediction of SNOs between GOES-16 and AQUA Satellite Orbit:

Table of predicted SNOs for the next 14.0 days since TLE Epoch: 11/2/2024
Index Date Time (GOES-16) GOES-16 Lat,Lon AQUA Lat,Lon Distance(km) Time Diff (sec)
1 11/02/2024 07:25:28 0.01, -75.20 0.25, -76.36 131.60 80
2 11/04/2024 07:09:54 0.02, -75.20 -0.69, -71.89 376.10 80
3 11/04/2024 19:27:04 -0.01, -75.21 -0.35, -76.69 168.54 80
4 11/06/2024 19:11:27 -0.01, -75.22 0.61, -72.21 340.82 80
5 11/07/2024 07:31:08 0.01, -75.21 0.38, -76.98 201.16 80
6 11/09/2024 07:10:08 0.01, -75.22 -0.58, -72.49 310.08 80
7 11/09/2024 19:29:55 -0.00, -75.23 -0.47, -77.28 233.61 80
8 11/11/2024 19:14:14 -0.00, -75.25 0.55, -72.79 280.12 80
9 11/12/2024 07:33:51 0.00, -75.25 0.52, -77.53 260.59 80
10 11/14/2024 07:12:45 0.00, -75.27 -0.45, -73.02 255.11 80
11 11/14/2024 19:32:32 -0.00, -75.29 -0.56, -77.81 287.61 80
